TimePDT,TemperatureF,Dew PointF,Humidity,Sea Level PressureIn,VisibilityMPH,Wind Direction,Wind SpeedMPH,Gust SpeedMPH,PrecipitationIn,Events,Conditions,WindDirDegrees,DateUTC
12:53 AM,70.0,59.0,68,29.73,10.0,SSE,4.6,-,N/A,,Clear,160,2013-09-14 07:53:00
1:53 AM,70.0,57.0,63,29.73,10.0,SE,4.6,-,N/A,,Clear,140,2013-09-14 08:53:00
2:53 AM,66.9,57.0,70,29.73,10.0,SSE,4.6,-,N/A,,Clear,160,2013-09-14 09:53:00
3:53 AM,68.0,55.0,63,29.73,10.0,SE,4.6,-,N/A,,Clear,130,2013-09-14 10:53:00
4:53 AM,66.9,55.0,66,29.74,10.0,SE,5.8,-,N/A,,Clear,140,2013-09-14 11:53:00
5:53 AM,66.0,55.0,68,29.75,10.0,ESE,4.6,-,N/A,,Clear,110,2013-09-14 12:53:00
6:53 AM,64.0,55.0,73,29.77,10.0,ESE,4.6,-,N/A,,Clear,120,2013-09-14 13:53:00
7:53 AM,66.0,55.0,68,29.78,10.0,SE,4.6,-,N/A,,Clear,140,2013-09-14 14:53:00
8:53 AM,68.0,55.0,63,29.79,10.0,SE,5.8,-,N/A,,Clear,140,2013-09-14 15:53:00
9:53 AM,73.0,55.0,53,29.79,10.0,Calm,Calm,-,N/A,,Clear,0,2013-09-14 16:53:00
10:53 AM,77.0,57.0,50,29.79,10.0,West,3.5,-,N/A,,Clear,260,2013-09-14 17:53:00
11:53 AM,80.1,57.9,47,29.78,10.0,Variable,3.5,-,N/A,,Clear,0,2013-09-14 18:53:00
12:53 PM,82.9,57.9,42,29.75,10.0,SW,3.5,-,N/A,,Clear,230,2013-09-14 19:53:00
1:53 PM,87.1,59.0,39,29.73,10.0,SW,5.8,-,N/A,,Clear,230,2013-09-14 20:53:00
2:53 PM,87.1,60.1,40,29.71,10.0,Variable,3.5,-,N/A,,Clear,0,2013-09-14 21:53:00
3:53 PM,91.0,60.1,35,29.68,10.0,Variable,4.6,-,N/A,,Clear,0,2013-09-14 22:53:00
4:53 PM,91.9,59.0,33,29.66,10.0,SSE,10.4,-,N/A,,Clear,160,2013-09-14 23:53:00
5:53 PM,90.0,60.1,37,29.65,10.0,South,12.7,-,N/A,,Clear,170,2013-09-15 00:53:00
6:53 PM,84.9,57.9,40,29.65,10.0,South,10.4,-,N/A,,Clear,170,2013-09-15 01:53:00
7:53 PM,81.0,59.0,47,29.67,10.0,SSE,8.1,-,N/A,,Clear,150,2013-09-15 02:53:00
8:53 PM,79.0,59.0,50,29.69,10.0,SE,8.1,-,N/A,,Clear,130,2013-09-15 03:53:00
9:53 PM,75.9,57.9,54,29.70,10.0,SE,11.5,-,N/A,,Clear,140,2013-09-15 04:53:00
10:53 PM,73.9,57.9,57,29.70,10.0,ESE,6.9,-,N/A,,Clear,120,2013-09-15 05:53:00
11:53 PM,71.1,57.9,63,29.71,10.0,SSE,6.9,-,N/A,,Clear,150,2013-09-15 06:53:00